| time (UTC) | temp C | wind direction | speed KPH | gust KPH | rain 1hr cm | rain 24hr cm | rain mn cm | humidity % | barometer mb |
| 20260504081544 | 12 | 190 | 3.2 | 8.0 | 0.00 | 0.00 | 0.00 | 100 | 1017.0 |
| 20260504050106 | 13 | 234 | 6.4 | 16.1 | 0.00 | 0.00 | 0.00 | 100 | 1017.3 |
| 20260504044547 | 13 | 210 | 4.8 | 14.5 | 0.00 | 0.00 | 0.00 | 100 | 1017.4 |
| 20260504043049 | 12 | 234 | 0.0 | 6.4 | 0.00 | 0.00 | 0.00 | 100 | 1017.3 |
| 20260504041542 | 12 | 210 | 1.6 | 8.0 | 0.00 | 0.00 | 0.00 | 100 | 1017.4 |
| 20260504040051 | 12 | 201 | 0.0 | 4.8 | 0.00 | 0.00 | 0.00 | 100 | 1017.3 |
| 20260504034543 | 12 | 208 | 3.2 | 6.4 | 0.00 | 0.00 | 0.00 | 100 | 1017.2 |
| 20260504033047 | 11 | 250 | 0.0 | 4.8 | 0.00 | 0.00 | 0.00 | 100 | 1017.2 |
| 20260504031550 | 11 | 214 | 1.6 | 4.8 | 0.00 | 0.00 | 0.00 | 100 | 1017.1 |
| 20260504030040 | 10 | 36 | 1.6 | 4.8 | 0.00 | 0.00 | 0.00 | 100 | 1017.1 |
| 20260504024614 | 9 | 0 | 1.6 | 4.8 | 0.00 | 0.00 | 0.00 | 100 | 1017.3 |
| 20260504023049 | 8 | 0 | 0.0 | 1.6 | 0.00 | 0.00 | 0.00 | 100 | 1017.1 |
| 20260504021543 | 7 | 0 | 0.0 | 0.0 | 0.00 | 0.00 | 0.00 | 100 | 1017.2 |
| 20260504020048 | 7 | 0 | 0.0 | 0.0 | 0.00 | 0.00 | 0.00 | 100 | 1017.1 |
| 20260504014545 | 7 | 0 | 0.0 | 0.0 | 0.00 | 0.00 | 0.00 | 100 | 1016.9 |
| 20260504013054 | 7 | 0 | 0.0 | 0.0 | 0.00 | 0.00 | 0.00 | 100 | 1016.9 |
| 20260504011548 | 8 | 0 | 0.0 | 0.0 | 0.00 | 0.00 | 0.00 | 100 | 1016.8 |
| 20260504010046 | 8 | 0 | 0.0 | 0.0 | 0.00 | 0.00 | 0.00 | 100 | 1016.7 |
| 20260504004546 | 8 | 0 | 0.0 | 0.0 | 0.00 | 0.00 | 0.00 | 100 | 1016.5 |
| 20260504003046 | 10 | 0 | 0.0 | 0.0 | 0.00 | 0.00 | 0.00 | 100 | 1016.3 |
| 20260504001546 | 10 | 0 | 0.0 | 0.0 | 0.00 | 0.00 | 0.00 | 100 | 1016.2 |
| 20260504000113 | 11 | 0 | 0.0 | 0.0 | 0.00 | 0.00 | 0.00 | 100 | 1016.0 |
| 20260503234551 | 12 | 0 | 0.0 | 0.0 | 0.00 | 0.00 | 0.00 | 100 | 1015.8 |
| 20260503233041 | 13 | 0 | 0.0 | 1.6 | 0.00 | 0.00 | 0.00 | 100 | 1015.8 |
| 20260503231541 | 13 | 301 | 1.6 | 6.4 | 0.00 | 0.00 | 0.00 | 100 | 1015.8 |
| 20260503230050 | 14 | 355 | 0.0 | 8.0 | 0.00 | 0.00 | 0.00 | 100 | 1015.7 |
| 20260503224546 | 14 | 336 | 3.2 | 14.5 | 0.00 | 0.00 | 0.00 | 100 | 1015.8 |
| 20260503223042 | 14 | 328 | 3.2 | 12.9 | 0.00 | 0.00 | 0.00 | 100 | 1015.7 |
| 20260503221549 | 14 | 338 | 4.8 | 14.5 | 0.00 | 0.00 | 0.00 | 100 | 1015.8 |
| 20260503220048 | 15 | 346 | 6.4 | 19.3 | 0.00 | 0.00 | 0.00 | 100 | 1015.7 |
| 20260503214546 | 15 | 311 | 11.3 | 24.1 | 0.00 | 0.00 | 0.00 | 100 | 1015.5 |
| 20260503213041 | 15 | 42 | 9.7 | 22.5 | 0.00 | 0.00 | 0.00 | 100 | 1015.7 |
| 20260503211540 | 15 | 319 | 8.0 | 19.3 | 0.00 | 0.00 | 0.00 | 100 | 1015.6 |
| 20260503210041 | 15 | 277 | 11.3 | 19.3 | 0.00 | 0.00 | 0.00 | 100 | 1015.5 |
| 20260503204548 | 15 | 317 | 11.3 | 27.4 | 0.00 | 0.00 | 0.00 | 100 | 1015.4 |
| 20260503203057 | 15 | 36 | 11.3 | 20.9 | 0.00 | 0.00 | 0.00 | 100 | 1015.6 |
| 20260503201549 | 15 | 9 | 8.0 | 29.0 | 0.00 | 0.00 | 0.00 | 100 | 1015.5 |
| 20260503200049 | 15 | 13 | 12.9 | 25.7 | 0.00 | 0.00 | 0.00 | 100 | 1015.9 |
| 20260503194553 | 14 | 342 | 12.9 | 30.6 | 0.00 | 0.00 | 0.00 | 100 | 1016.1 |
| 20260503193051 | 14 | 13 | 12.9 | 25.7 | 0.00 | 0.00 | 0.00 | 100 | 1016.4 |
| 20260503191553 | 14 | 44 | 16.1 | 30.6 | 0.00 | 0.00 | 0.00 | 100 | 1016.6 |
| 20260503190048 | 13 | 323 | 14.5 | 30.6 | 0.00 | 0.00 | 0.00 | 100 | 1016.8 |
| 20260503184549 | 14 | 338 | 12.9 | 27.4 | 0.00 | 0.00 | 0.00 | 100 | 1016.7 |
| 20260503183045 | 13 | 18 | 9.7 | 27.4 | 0.00 | 0.00 | 0.00 | 100 | 1016.9 |
| 20260503181546 | 13 | 9 | 8.0 | 25.7 | 0.00 | 0.00 | 0.00 | 100 | 1017.0 |
| 20260503180052 | 13 | 282 | 16.1 | 30.6 | 0.00 | 0.00 | 0.00 | 100 | 1017.2 |
| 20260503174545 | 13 | 267 | 11.3 | 27.4 | 0.00 | 0.00 | 0.00 | 100 | 1017.3 |
| 20260503173055 | 13 | 318 | 12.9 | 38.6 | 0.00 | 0.00 | 0.00 | 100 | 1017.4 |
| 20260503171542 | 13 | 342 | 6.4 | 27.4 | 0.00 | 0.00 | 0.00 | 100 | 1017.3 |